User: anonymous   Login
Location: Narrabri
(30.3170°S, 149.7830°E)
Time: 18:42:32
(UTC+10:00)
Language:

XW-2D - Orbit

View from above orbital plane
View from above orbital plane
View from above satellite
View from above satellite

Ground track
Ground track

The orbit data is extracted from the following two-line orbital elements,

1 40907U 15049J   18114.91442039 +.00000787 +00000-0 +45282-4 0  9993
2 40907 097.4578 119.0880 0013586 206.5290 153.5248 15.15267806143430
Epoch (UTC): 24 April 2018 21:56:45
Eccentricity: 0.0013586
inclination: 97.4578°
perigee height: 511 km
apogee height: 529 km
right ascension of ascending node: 119.0880°
argument of perigee: 206.5290°
revolutions per day: 15.15267806
mean anomaly at epoch: 153.5248°
orbit number at epoch: 14343

The dashed part of the orbit path shows where the satellite is in the earth's shadow,  

DLR